SWA2183 KEUG-KSMF

Flight info

Callsign SWA2183
Flight time N/A
Altitude 31000
Route RBG OED RBL TUDOR2
Aircraft B738/M-SDE2E3FGHIRWXY/LB1

Departure

Time 2026-04-20 01:12
Airport Eugene Airport (KEUG)

Arrival

Time N/A
Airport Sacramento International Airport (KSMF)
Time Latitude Longitude Altitude Speed Heading
2026-04-20 00:48 44.12034 -123.21446 369 ft 0 kts 135°
2026-04-20 01:04 44.12039 -123.21453 369 ft 4 kts 130°
2026-04-20 01:05 44.12033 -123.21445 369 ft 3 kts 340°
2026-04-20 01:05 44.12019 -123.21438 377 ft 4 kts 52°
2026-04-20 01:05 44.12014 -123.21448 369 ft 0 kts 347°
2026-04-20 01:08 44.12019 -123.21450 368 ft 4 kts 346°
2026-04-20 01:08 44.12077 -123.21470 370 ft 13 kts 347°
2026-04-20 01:08 44.12186 -123.21488 369 ft 19 kts 339°
2026-04-20 01:08 44.12316 -123.21598 370 ft 25 kts 329°
2026-04-20 01:09 44.12493 -123.21708 368 ft 31 kts 357°
2026-04-20 01:09 44.12712 -123.21714 368 ft 34 kts 358°
2026-04-20 01:09 44.12959 -123.21721 370 ft 36 kts 359°
2026-04-20 01:09 44.13222 -123.21724 370 ft 38 kts 359°
2026-04-20 01:10 44.13401 -123.21725 371 ft 20 kts 359°
2026-04-20 01:10 44.13537 -123.21810 372 ft 12 kts 271°
2026-04-20 01:10 44.13491 -123.21909 373 ft 23 kts 186°
2026-04-20 01:11 44.13108 -123.21909 374 ft 88 kts 179°
2026-04-20 01:11 44.12284 -123.21894 365 ft 147 kts 179°
2026-04-20 01:11 44.11116 -123.21871 477 ft 182 kts 179°
2026-04-20 01:11 44.09794 -123.21864 873 ft 202 kts 180°
2026-04-20 01:12 44.08283 -123.21877 1129 ft 228 kts 180°
2026-04-20 01:12 44.06641 -123.21816 1484 ft 243 kts 178°
2026-04-20 01:12 44.04923 -123.21711 1880 ft 258 kts 178°
2026-04-20 01:12 44.03025 -123.21623 2174 ft 286 kts 179°
2026-04-20 01:13 44.01002 -123.21560 3034 ft 286 kts 180°
2026-04-20 01:13 43.99079 -123.21696 4363 ft 269 kts 186°
2026-04-20 01:13 43.97236 -123.22017 5348 ft 267 kts 186°
2026-04-20 01:13 43.95402 -123.22367 6280 ft 264 kts 186°
2026-04-20 01:14 43.93572 -123.22713 7108 ft 265 kts 186°
2026-04-20 01:14 43.91764 -123.23045 7903 ft 265 kts 185°
2026-04-20 01:14 43.89928 -123.23375 8748 ft 265 kts 184°
2026-04-20 01:14 43.88098 -123.23697 9563 ft 265 kts 184°
2026-04-20 01:15 43.86257 -123.24015 10312 ft 268 kts 184°